Weather Roundup
Issued by NWS Chicago, IL

Home | Current Version | Previous Version | Graphics & Text | Print | Product List | Glossary On
Versions: 1 2 3 4 5 6 7 8 9 10 11 12 13 14 15 16 17 18 19 20 21 22 23 24 25 26 27 28 29 30 31 32 33 34 35 36 37 38 39 40 41 42 43 44 45 46 47 48 49 50
000
NZUS59 KLOT 051610
HRRLOT

CHICAGO AREA WEATHER ROUNDUP
NATIONAL WEATHER SERVICE CHICAGO/ROMEOVILLE IL
1000 AM CST THU MAR 05 2015

NOTE: "FAIR" INDICATES FEW OR NO CLOUDS BELOW 12,000 FEET WITH NO
SIGNIFICANT WEATHER AND/OR OBSTRUCTIONS TO VISIBILITY.

* THESE STATIONS ARE NOT UNDER NWS QUALITY CONTROL. THEY ALSO MAY NOT
  REPORT WEATHER SUCH AS PRECIPITATION OR FOG.

ILZ005-006-012>014-019>023-051700-
NORTHEAST ILLINOIS

CITY           SKY/WX    TMP DP  RH WIND       PRES   REMARKS
OHARE          MOSUNNY   13  -5  44 NW10      30.45F WCI   0
MIDWAY         MOSUNNY   16  -4  41 NW9       30.46F WCI   4
AURORA         SUNNY      9  -2  61 NW9       30.48F WCI  -4
LANSING*       SUNNY     16  -1  48 NW9       30.45S WCI   4
JOLIET*        SUNNY     12  -4  47 W6        30.49R WCI   3
WAUKEGAN       SUNNY     11  -9  40 NW7       30.46S WCI   0
DUPAGE AIRPORT SUNNY     12  -7  42 N9        30.46S WCI   0
WHEELING       SUNNY     13  -7  40 NW10      30.48F WCI   0
KANKAKEE*      SUNNY     14   0  53 NW10      30.48R WCI   1
MORRIS*        SUNNY     10   1  68 NW8       30.49S WCI  -3
LEWIS AIRPORT* SUNNY     13  -4  45 N12       30.47S WCI  -1
NORTHERLY IS     N/A     17  -2  43 W10         N/A  WCI   5
$$

WIZ051-052-058>065-066-070>072-051700-
SOUTHEAST WISCONSIN

CITY           SKY/WX    TMP DP  RH WIND       PRES   REMARKS
MILWAUKEE      SUNNY     11  -8  42 NW10      30.47R WCI  -3
KENOSHA*       SUNNY      8  -6  52 NW8       30.46S WCI  -4
RACINE*        SUNNY     11  -8  42 NW8       30.48R WCI  -1
WAUKESHA       SUNNY      7  -9  47 NW12      30.47R WCI  -9
$$

INZ001>003-010>013-019-020-051700-
NORTHWEST INDIANA

CITY           SKY/WX    TMP DP  RH WIND       PRES   REMARKS
GARY*          MOSUNNY   18   0  45 NW14      30.45S WCI   4
MICHIGAN CITY* NOT AVBL
RENSSELAER*    NOT AVBL
VALPARAISO     LGT SNOW  17   9  70 NW12      30.42R WCI   4
$$

LMZ740>746-051700-
SOUTHERN LAKE MICHIGAN

STATION/POSITION TIME  SKY/WX   TEMP WIND        PRES    VSBY
                                AIR  DIR/SP/G
                 (UTC)          (F)  (DEG/KT/KT) (MB)    (MI)
HARRISON CRIB    1600            13  310/ 10/ 13   N/A
BURNHAM HARBOR   1600            17  290/  9/ 12   N/A
CALUMET HARBOR   1600            15  320/  7/ 10 1029.8S
BURNS HARBOR     NOT AVBL
MICHIGAN CITY    1600            18  280/ 15/ 19   N/A
$$

ABBREVIATIONS USED IN REMARKS
   TC - TEMPERATURE IN CELSIUS
  WCI - WIND CHILL INDEX
   HX - HEAT INDEX
  VSB - VISIBILITY
$$



USA.gov is the U.S. government's official web portal to all federal, state and local government web resources and services.